Concord, NC

4:17 AM EDT on June 28, 2017 (GMT -0400)
Concord Regional

Weather History for KJQF - February, 2013

Change the Weather History Date:

Tuesday, February 26, 2013

  Actual Average (KCLT) Record (KCLT)
Temperature  
Mean Temperature 38 °F -  
Max Temperature 44 °F 54 °F 81 °F (1977)
Min Temperature 33 °F 33 °F 7 °F (1967)
Degree Days  
Heating Degree Days 26    
Moisture  
Dew Point 34 °F    
Average Humidity 87    
Maximum Humidity 100    
Minimum Humidity 56    
Precipitation  
Precipitation 0.25 in - - ()
Sea Level Pressure  
Sea Level Pressure 29.86 in    
Wind  
Wind Speed 5 mph (NNE)    
Max Wind Speed 12 mph    
Max Gust Speed -    
Visibility 4 miles    
Events Fog , Rain    
Averages and records for this station are not official NWS values.
T = Trace of Precipitation, MM = Missing Value Source: NWS Daily Summary

Daily Weather History Graph

Daily Weather History Graph

Search for Another Location

Airport or City:

Trip Planner

Search our weather history database for the weather conditions in past years. The results will help you decide how hot, cold, wet, or windy it might be!

Date:

Astronomy

Feb. 26, 2013 Rise Set
Actual Time 6:56 AM EST 6:15 PM EST
Civil Twilight 6:30 AM EST 6:41 PM EST
Nautical Twilight 6:00 AM EST 7:10 PM EST
Astronomical Twilight 5:31 AM EST 7:40 PM EST
Moon 7:26 PM EST (2/26) 7:01 AM EST (2/26)
Length of Visible Light 12h 10m
Length of Day
11h 19m
Full, 99% of the Moon is Illuminated
Feb 26
Full
Mar 4
Last Quarter
Mar 11
New
Mar 19
First Quarter
Mar 27
Full

Hourly Weather History & Observations

Time (EST) Temp. Windchill Dew Point Humidity Pressure Visibility Wind Dir Wind Speed Gust Speed Precip Events Conditions
12:15 AM 37.4 °F 33.8 °F 23.0 °F 56% 30.11 in 10.0 mi NE 4.6 mph - N/A   Overcast
12:35 AM 37.4 °F 32.8 °F 23.0 °F 56% 30.11 in 10.0 mi NE 5.8 mph - N/A   Overcast
12:55 AM 37.4 °F 32.8 °F 23.0 °F 56% 30.11 in 10.0 mi NE 5.8 mph - N/A   Overcast
1:15 AM 37.4 °F 32.8 °F 24.8 °F 60% 30.10 in 10.0 mi ENE 5.8 mph - N/A   Overcast
1:35 AM 37.4 °F 32.8 °F 24.8 °F 60% 30.09 in 10.0 mi NE 5.8 mph - N/A   Overcast
1:55 AM 37.4 °F 33.8 °F 24.8 °F 60% 30.09 in 10.0 mi NE 4.6 mph - N/A   Overcast
2:15 AM 37.4 °F 32.8 °F 26.6 °F 65% 30.08 in 10.0 mi NE 5.8 mph - N/A   Overcast
2:35 AM 35.6 °F 30.7 °F 28.4 °F 75% 30.06 in 10.0 mi NE 5.8 mph - N/A   Overcast
2:55 AM 35.6 °F 30.7 °F 28.4 °F 75% 30.05 in 10.0 mi NE 5.8 mph - N/A   Overcast
3:15 AM 35.6 °F 29.2 °F 28.4 °F 75% 30.04 in 10.0 mi NNE 8.1 mph - N/A   Overcast
3:35 AM 33.8 °F 27.7 °F 30.2 °F 87% 30.02 in 7.0 mi NNE 6.9 mph - N/A   Overcast
3:55 AM 33.8 °F 28.6 °F 32.0 °F 93% 30.02 in 7.0 mi NE 5.8 mph - N/A   Overcast
4:15 AM 33.8 °F 29.6 °F 32.0 °F 93% 30.01 in 3.0 mi NNE 4.6 mph - N/A   Overcast
4:35 AM 33.8 °F 28.6 °F 32.0 °F 93% 30.00 in 3.0 mi NE 5.8 mph - 0.01 in   Overcast
4:55 AM 33.8 °F 28.6 °F 32.0 °F 93% 29.99 in 3.0 mi NNE 5.8 mph - 0.02 in   Overcast
5:15 AM 33.8 °F 27.7 °F 32.0 °F 93% 29.99 in 2.5 mi NNE 6.9 mph - 0.04 in   Overcast
5:35 AM 33.8 °F 29.6 °F 32.0 °F 93% 30.00 in 2.5 mi NE 4.6 mph - 0.11 in   Overcast
5:55 AM 33.8 °F 29.6 °F 32.0 °F 93% 30.00 in 2.5 mi NNE 4.6 mph - 0.17 in   Overcast
6:15 AM 33.8 °F 29.6 °F 32.0 °F 93% 29.98 in 3.0 mi NE 4.6 mph - 0.03 in   Overcast
6:35 AM 33.8 °F 29.6 °F 32.0 °F 93% 29.98 in 4.0 mi North 4.6 mph - 0.06 in   Overcast
6:55 AM 33.8 °F 26.4 °F 32.0 °F 93% 29.97 in 3.0 mi NNE 9.2 mph - N/A Rain Rain
7:55 AM 33.8 °F 26.4 °F 32.0 °F 93% 29.94 in 2.0 mi NE 9.2 mph - N/A Rain Rain
8:55 AM 35.6 °F 27.5 °F 33.8 °F 93% 29.89 in 2.0 mi ENE 11.5 mph - N/A Rain Rain
9:55 AM 37.4 °F 30.8 °F 35.6 °F 93% 29.85 in 2.0 mi NE 9.2 mph - N/A Rain Rain
10:55 AM 37.4 °F 30.8 °F 37.4 °F 100% 29.83 in 2.0 mi NE 9.2 mph - N/A Rain Rain
11:55 AM 39.2 °F 33.6 °F 39.2 °F 100% 29.76 in 3.0 mi NE 8.1 mph - N/A   Overcast
12:55 PM 42.8 °F 36.6 °F 41.0 °F 93% 29.69 in 5.0 mi East 11.5 mph - N/A   Overcast
2:55 PM 44.6 °F 40.7 °F 44.6 °F 100% 29.65 in 3.0 mi WNW 6.9 mph - N/A Rain Light Rain
3:55 PM 42.8 °F 39.3 °F 41.0 °F 93% 29.62 in 1.0 mi NW 5.8 mph - N/A Rain Rain
4:55 PM 41.0 °F 38.0 °F 39.2 °F 93% 29.63 in 3.0 mi North 4.6 mph - N/A   Overcast
5:55 PM 41.0 °F 39.0 °F 39.2 °F 93% 29.62 in 7.0 mi North 3.5 mph - N/A   Overcast
6:55 PM 41.0 °F - 39.2 °F 93% 29.66 in 7.0 mi Calm Calm - N/A   Overcast
7:55 PM 41.0 °F - 39.2 °F 93% 29.68 in 2.0 mi Calm Calm - N/A   Overcast
8:15 PM 39.2 °F - 37.4 °F 93% 29.67 in 5.0 mi Calm Calm - N/A   Overcast
8:35 PM 41.0 °F - 37.4 °F 87% 29.67 in 1.5 mi Calm Calm - N/A   Overcast
8:55 PM 41.0 °F - 39.2 °F 93% 29.69 in 0.5 mi Calm Calm - N/A   Overcast
8:57 PM 41.0 °F - 39.2 °F 93% 29.69 in 0.5 mi Calm Calm - N/A Fog Fog
9:15 PM 39.2 °F - 37.4 °F 93% 29.69 in 0.5 mi Calm Calm - N/A   Overcast
9:35 PM 41.0 °F - 39.2 °F 93% 29.69 in 0.5 mi Calm Calm - N/A   Overcast
9:55 PM 41.0 °F - 39.2 °F 93% 29.69 in 0.5 mi Calm Calm - N/A   Overcast
10:15 PM 41.0 °F - 39.2 °F 93% 29.69 in 0.8 mi Calm Calm - N/A   Overcast
10:35 PM 41.0 °F - 39.2 °F 93% 29.69 in 0.5 mi Calm Calm - N/A   Overcast
10:55 PM 41.0 °F 38.0 °F 39.2 °F 93% 29.70 in 0.8 mi WSW 4.6 mph - N/A   Overcast
11:15 PM 39.2 °F 37.0 °F 37.4 °F 93% 29.69 in 0.8 mi WSW 3.5 mph - N/A   Overcast
11:35 PM 39.2 °F 37.0 °F 37.4 °F 93% 29.70 in 0.8 mi WSW 3.5 mph - N/A   Overcast
11:55 PM 39.2 °F 33.6 °F 37.4 °F 93% 29.70 in 3.0 mi SW 8.1 mph - N/A   Overcast